Skagway, AK

9:16 AM AKDT on April 24, 2018 (GMT -0800)
Skagway

Weather History for PAGY - April, 2012

Change the Weather History Date:

Wednesday, April 11, 2012

  Actual Average Record
Temperature  
Mean Temperature 47 °F -  
Max Temperature 59 °F 45 °F 62 °F (1984)
Min Temperature 37 °F 30 °F 19 °F (1968)
Degree Days  
Heating Degree Days 18    
Moisture  
Dew Point 32 °F    
Average Humidity 57    
Maximum Humidity 76    
Minimum Humidity 39    
Precipitation  
Precipitation 0.00 in - - ()
Sea Level Pressure  
Sea Level Pressure 29.74 in    
Wind  
Wind Speed 3 mph (NE)    
Max Wind Speed 16 mph    
Max Gust Speed 17 mph    
Visibility 10 miles    
Events      
Averages and records for this station are not official NWS values.
T = Trace of Precipitation, MM = Missing Value Source: NWS Daily Summary

Daily Weather History Graph

Daily Weather History Graph

Search for Another Location

Airport or City:

Astronomy

Apr. 11, 2012 Rise Set
Actual Time 5:55 AM AKDT 8:09 PM AKDT
Civil Twilight 5:11 AM AKDT 8:54 PM AKDT
Nautical Twilight 4:14 AM AKDT 9:52 PM AKDT
Astronomical Twilight 3:00 AM AKDT 11:08 PM AKDT
Moon 2:14 AM AKDT (4/11) 8:50 AM AKDT (4/11)
Length of Visible Light 15h 42m
Length of Day
14h 14m
Waning Gibbous, 68% of the Moon is Illuminated
Apr 11
Waning Gibbous
Apr 13
Last Quarter
Apr 20
New
Apr 29
First Quarter
May 5
Full

Hourly Weather History & Observations

Time (AKDT) Temp. Windchill Dew Point Humidity Pressure Visibility Wind Dir Wind Speed Gust Speed Precip Events Conditions
12:53 AM 39.9 °F - 30.0 °F 68% 29.75 in 10.0 mi Calm Calm - N/A   Overcast
1:53 AM 39.2 °F - 30.2 °F 70% 29.74 in 10.0 mi Calm Calm - N/A   Overcast
2:53 AM 39.9 °F - 30.0 °F 68% 29.74 in 10.0 mi Calm Calm - N/A   Overcast
3:53 AM 39.0 °F - 30.9 °F 73% 29.73 in 10.0 mi Calm Calm - N/A   Overcast
4:53 AM 37.4 °F - 30.2 °F 75% 29.74 in 10.0 mi Calm Calm - N/A   Overcast
5:53 AM 37.9 °F 35.5 °F 30.9 °F 76% 29.74 in 10.0 mi NNE 3.5 mph - N/A   Overcast
6:53 AM 39.0 °F - 32.0 °F 76% 29.74 in 10.0 mi Calm Calm - N/A   Overcast
7:53 AM 39.9 °F 35.8 °F 32.0 °F 73% 29.75 in 10.0 mi NNE 5.8 mph - N/A   Overcast
8:53 AM 43.0 °F - 32.0 °F 65% 29.75 in 10.0 mi Calm Calm - N/A   Scattered Clouds
9:53 AM 48.9 °F - 33.1 °F 54% 29.75 in 10.0 mi NNE 5.8 mph - N/A   Mostly Cloudy
10:53 AM 55.0 °F - 32.0 °F 42% 29.75 in 10.0 mi NE 16.1 mph - N/A   Mostly Cloudy
11:53 AM 55.9 °F - 34.0 °F 44% 29.73 in 10.0 mi NE 15.0 mph - N/A   Overcast
12:53 PM 57.0 °F - 33.1 °F 40% 29.72 in 10.0 mi NE 13.8 mph - N/A   Scattered Clouds
1:53 PM 57.9 °F - 33.1 °F 39% 29.72 in 10.0 mi NE 11.5 mph - N/A   Scattered Clouds
2:53 PM 57.9 °F - 34.0 °F 41% 29.72 in 10.0 mi Variable 6.9 mph - N/A   Mostly Cloudy
3:53 PM 57.9 °F - 33.1 °F 39% 29.72 in 10.0 mi Variable 5.8 mph - N/A   Mostly Cloudy
4:53 PM 57.0 °F - 33.1 °F 40% 29.71 in 10.0 mi NNE 10.4 mph 17.3 mph N/A   Mostly Cloudy
5:53 PM 55.9 °F - 32.0 °F 40% 29.71 in 10.0 mi Variable 3.5 mph - N/A   Mostly Cloudy
6:53 PM 54.0 °F - 33.1 °F 45% 29.72 in 10.0 mi Calm Calm - N/A   Overcast
7:53 PM 52.0 °F - 33.1 °F 49% 29.73 in 10.0 mi Calm Calm - N/A   Overcast
8:53 PM 48.9 °F - 33.1 °F 54% 29.74 in 10.0 mi East 3.5 mph - N/A   Overcast
9:53 PM 45.0 °F - 34.0 °F 65% 29.75 in 10.0 mi Calm Calm - N/A   Overcast
10:53 PM 44.6 °F - 33.8 °F 66% 29.75 in 10.0 mi Calm Calm - N/A   Overcast
11:53 PM 42.1 °F - 34.0 °F 73% 29.75 in 10.0 mi Calm Calm - N/A   Mostly Cloudy